COMSATBW-2

Last updated on May 21, 2019, 3:10 a.m. UTC

1 36582U 10021B   19140.81512483  .00000079  00000-0  00000+0 0  9990
2 36582   0.0150 352.8223 0003223  87.6468 104.3005  1.00272110 33076
UTC
Height (km)
Latitude
Longitude
Inclination
Orbital Period
UTC large
Height (km)
Speed (km/s)
/
Latitude / Longitude
Inclination (degrees)
Orbital Period (minutes)
Azimuth
Elevation
Range (km)
Doppler Factor
iOS Compass Heading
iOS Angle

Next 30 passes for location: Hong Kong

Rise time Rise Azimuth (degrees) Set time Set Azimuth (degrees) Duration Max altitude (degrees)

No matching passes for this satellites